IRIDIUM 33 DEB

Satellite information

Favourite Embed

Satellite Type and Status

DEBRISIN ORBIT

Key statistics

Satellite IRIDIUM 33 DEB at a glance.

Uptime

10265

Days in orbit

Revolutions

≈ 14.4

Per day

Orbit

LEO

Low Earth Orbit

Inclination

86.3

Latest

Satellite identification and parameters

Extended collection of information and parameters for IRIDIUM 33 DEB.

Object identification

Identified? True

Debris? True

Object name: IRIDIUM 33 DEB

International designator: 1997-051ABR

Object number (NORAD): 46734

Object ID (CCSDS): 46734

Country: UNITED STATES OF AMERICA (US)

Current information (Y/N): Y

RCS size: SMALL

Orbital parameters

Period: 99.904 minutes

Inclination: 86.2666 deg

SMA: 7132.053 km

Apoapsis: 783.921 km

Periapsis: 723.915 km

RAAN: 26.8575 deg

Eccentricy: 0.00420676

Argument of periapsis: 151.6675 deg

Mean anomaly: 27.6978 deg

Mean motion: 14.41388088 rev/day

Mean motion (dot): 0.00006717 rev/day2

B* drag term: 0.0020459194 1/REarth

Two-line elements (TLE)

Creation date: Oct. 19, 2025, 10:30 a.m.

Reference frame: TEME

Reference center: EARTH

Epoch: Oct. 19, 2025, 12:44 a.m. UTC

TLE line 0: 0 IRIDIUM 33 DEB

TLE line 1: 1 46734U 97051ABR 25292.03110606 .00006717 00000-0 20459-2 0 9996

TLE line 2: 2 46734 86.2666 26.8575 0042068 151.6675 27.6978 14.41388088622222

Live tracking on map

Real-time ground track for satellite IRIDIUM 33 DEB.

In-orbit conjunctions

A list of the most updated potential collisions computed for object IRIDIUM 33 DEB.

Target Orbit TCA Probability of collision Miss distance Type
FENGYUN 1C DEB SSO 2025-09-21 09:12:33 0.0001367046 44.0 (m) DEBRIS
COSMOS 1275 DEB LEO 2025-09-03 22:31:17 0.0002909286 61.0 (m) DEBRIS
COSMOS 2056 LEO 2025-03-21 04:54:23 0.0003702611 201.0 (m) PAYLOAD
CZ-6A DEB SSO 2024-11-13 05:08:05 0.0004620062 166.0 (m) DEBRIS
SL-14 DEB LEO 2024-11-12 06:21:22 0.0001910355 975.0 (m) DEBRIS

Associated space launch

Iridium provides global mobile telecommunications services using a constellation of 66 low earth orbit satellites in a 86.4° inclined orbit. Although 77 satellites were originally envisioned for the system and spawned the name based on the 77th element in the periodic table, the system has been scaled back. Motorola's Satellite Communications Group designed and manufactured the Iridium satellites with Lockheed Martin providing the LM-700A spacecraft buses.

IRIDIUM 33 DEB was lifted into orbit during the mission ‘Proton-K/17S40 | Iridium 27 to 33’, on board a Proton-K/17S40 space rocket.

The launch took place on Sept. 14, 1997, 1:36 a.m. from 81/23 (81L).

For more information about the launch, click the button.

Launch to space Proton-K/17S40 | Iridium 27 to 33
Proton-K/17S40 | Iridium 27 to 33

Agency: N/A

Status: Launch Successful

Launch date: Sept. 14, 1997, 1:36 a.m. UTC

Rocket: Proton-K/17S40

Launch pad: 81/23 (81L)

Location: Baikonur Cosmodrome, Republic of Kazakhstan

...

Latest news about this satellite

There are no fresh news available about this satellite. Check back as we update our databases every day.


Newsletter sign-up

Weekly statistics, charts and insights to help you stay on top of the space industry.